Regional Weather Roundup
Issued by NWS Mobile, AL

Home | Current Version | Previous Version | Text Only | Print | Product List | Glossary On
Versions: 1 2 3 4 5 6 7 8 9 10 11 12 13 14 15 16 17 18 19 20 21 22 23 24 25 26 27
000
ASUS44 KMOB 281813
RWRMOB
REGIONAL WEATHER ROUNDUP
NATIONAL WEATHER SERVICE MOBILE AL
100 PM CDT THU JUL 28 2016

NOTE: "FAIR" INDICATES FEW OR NO CLOUDS BELOW 12,000 FEET WITH NO
      SIGNIFICANT WEATHER AND/OR OBSTRUCTIONS TO VISIBILITY.

  * THESE STATIONS ARE PART OF THE UNIVERSITY OF SOUTH ALABAMA
    MESONET AND ARE NOT UNDER NWS OR FAA QUALITY CONTROL.

ALZ061>064-281900-
COASTAL ALABAMA

CITY           SKY/WX    TMP DP  RH WIND       PRES   REMARKS
MOBILE REG APT PTSUNNY   90  74  59 S12       30.07F HX  99
6HR MIN TEMP:  77; 6HR MAX TEMP:  90;

BROOKLEY FIELD MOSUNNY   91  76  61 VRB5      30.07S HX 103
6HR MIN TEMP:  77; 6HR MAX TEMP:  91;

USA CAMPUS*    NOT AVBL
DOG RIVER*     NOT AVBL


CITY           SKY/WX    TMP DP  RH WIND       PRES   REMARKS
MOUNT VERNON*  NOT AVBL
SARALAND*      NOT AVBL
BAY MINETTE*   NOT AVBL
LOXLEY*        NOT AVBL
ROBERTSDALE*   NOT AVBL
FAIRHOPE*      NOT AVBL
ELBERTA*       NOT AVBL
FOLEY*         NOT AVBL
GRAND BAY*     NOT AVBL
DAUPHIN ISLND* NOT AVBL
BON SCOUR NWR* NOT AVBL
GULF SHORES    MOSUNNY   88  75  65 SW13G18   30.07S HX  98

$$

ALZ051>060-281900-
INTERIOR SOUTHWEST AND SOUTH CENTRAL ALABAMA

CITY           SKY/WX    TMP DP  RH WIND       PRES   REMARKS
GREENVILLE     SUNNY     92  68  45 SW13      30.04F HX  96
6HR MIN TEMP:  74; 6HR MAX TEMP:  92;

EVERGREEN      MOSUNNY   92  72  51 VRB6      30.06F HX  99
6HR MIN TEMP:  73; 6HR MAX TEMP:  92;

CASTLEBERRY*   NOT AVBL
ATMORE*        NOT AVBL
DIXIE*         NOT AVBL
ANDALUSIA/OPP  SUNNY     96  70  42 W9        30.05F HX 102
6HR MIN TEMP:  77; 6HR MAX TEMP:  97;

ANDALUSIA*     NOT AVBL
FLORALA APT    MOSUNNY   92  69  47 VRB6      30.07F HX  97
6HR MIN TEMP:  74; 6HR MAX TEMP:  92;

FLORALA*       NOT AVBL

$$

FLZ001>006-281900-
WESTERN FLORIDA PANHANDLE

CITY           SKY/WX    TMP DP  RH WIND       PRES   REMARKS
PENSACOLA      MOSUNNY   90  75  61 S14       30.06F HX 100
6HR MIN TEMP:  79; 6HR MAX TEMP:  91;

NAS PENSACOLA  MOSUNNY   90  75  61 S14       30.07S HX 100
6HR MIN TEMP:  78; 6HR MAX TEMP:  91;

MILTON         CLOUDY    90  74  59 SW10      30.07S HX  99
6HR MIN TEMP:  74; 6HR MAX TEMP:  91;

WHTNG S FIELD  MOSUNNY   89  74  60 VRB5      30.07S HX  98


CITY           SKY/WX    TMP DP  RH WIND       PRES   REMARKS
WALNUT HILL*   NOT AVBL
JAY*           NOT AVBL
CRESTVIEW      MOSUNNY   93  71  48 S12       30.07S HX 100
6HR MIN TEMP:  73; 6HR MAX TEMP:  93;

VALPARAISO     NOT AVBL
DESTIN         MOSUNNY   93  78  61 S8        30.07S HX 108
6HR MIN TEMP:  83; 6HR MAX TEMP:  93;


$$

MSZ076-079-281900-
INTERIOR SOUTHEAST MISSISSIPPI

CITY           SKY/WX    TMP DP  RH WIND       PRES   REMARKS
LEAKESVILLE*   NOT AVBL
AGRICOLA*      NOT AVBL

$$

MARINE OBSERVATIONS

STATION/POSITION TIME  TEMP    WIND        PRES    WAVE
                       AIR SEA DIR/SP/G            HT/PER
                 (UTC) (F)     (DEG/KT/KT) (MB)    (FT/S)
PASCAGOULA       1700   86     210/  7/ 11 1018.2S
PETIT BOIS ISLND 1700   85     220/  8/  9 1019.1S
GRAND BAY        1600   87     220/  7     1020.0R
KATRINA CUT      1700   85     220/  7     1019.0S
CEDAR POINT      1700   84     230/  8     1018.6R
E DAUPHIN ISLAND 1700   86     200/  6/  9 1018.2S
MIDDLE BAY LIGHT 1700   85     210/ 11     1018.6S
USCG MOBILE BAY  1700   87 86  160/  8/ 12 1018.5F
STATE DOCKS      1700   87 88              1018.0S
MEAHER PARK      1700   85     170/ 10     1018.0F
WEEKS BAY        1600   89                   N/A
FORT MORGAN      1700   86     230/  9/ 11 1018.0S
12 S ORANGE BCH  1750   85 88  220/  8/ 10 1018.5F   2/ 4
PENSACOLA BAY    1700   88 86  200/ 10/ 13 1018.6R
64 S DAUPHIN ISL 1800   86 88  170/  8/ 10 1017.8F
67 S FORT MORGAN 1730   85     160/  8     1018.3S

$$

SELECTED LOCATIONS ACROSS THE REGION

CITY           SKY/WX    TMP DP  RH WIND       PRES   REMARKS
NEW ORLEANS    PTSUNNY   93  75  55 S10       30.04F HX 104
GULFPORT       SUNNY     89  74  60 S9        30.05F HX  98
PASCAGOULA AP  MOSUNNY   90  79  70 S8        30.06F HX 106
PASCAGOULA*    NOT AVBL
HATTIESBURG    CLOUDY    91  74  57 SW7       30.06S HX 100
LAUREL         MOSUNNY   88  75  66 SW8       30.07S HX  97
MERIDIAN       CLOUDY    87  73  62 SW9       30.03F
JACKSON        CLOUDY    78  74  87 W8        30.05F
MONTGOMERY     MOSUNNY   91  69  48 SW9       30.03F HX  96
TROY           SUNNY     90  68  48 W7        30.06F
KINSTON*       NOT AVBL
GENEVA*        NOT AVBL
ASHFORD*       NOT AVBL
DOTHAN         MOSUNNY   91  70  49 SW7       30.09F HX  96
PANAMA CITY    MOSUNNY   90  75  61 S15       30.07R HX 100

$$





USA.gov is the U.S. government's official web portal to all federal, state and local government web resources and services.